Regional Weather Roundup
Issued by NWS

Home | Current Version | Previous Version | Graphics & Text | Print | Product List | Glossary On
Versions: 1 2 3 4 5 6 7 8 9 10 11 12 13 14 15 16 17 18 19 20 21 22 23 24 25 26 27 28 29 30 31 32 33 34 35 36 37 38 39 40 41 42 43 44 45 46 47 48 49 50
000
ASUS45 KBOI 280010
RWRID
WEATHER ROUNDUP FOR IDAHO
NATIONAL WEATHER SERVICE BOISE ID
500 PM MST THU NOV 27 2014

NOTE: "FAIR" INDICATES FEW OR NO CLOUDS BELOW 12000 FEET
WITH NO SIGNIFICANT WEATHER AND/OR OBSTRUCTIONS TO VISIBILITY

IDZ012-014-280100-
SOUTHWEST IDAHO


CITY           SKY/WX    TMP DP  RH WIND       PRES   REMARKS
BOISE          CLOUDY    53  42  66 E3        30.05S
CALDWELL       NOT AVBL
MOUNTAIN HOME  MOCLDY    51  45  82 E2        30.05F
$$

IDZ016-017-280100-
SOUTHCENTRAL IDAHO


CITY           SKY/WX    TMP DP  RH WIND       PRES   REMARKS
BURLEY         CLOUDY    55  32  41 SW8       30.09F
JEROME         CLOUDY    53  35  50 SE6       30.09F
TWIN FALLS     CLOUDY    50  36  58 S3        30.09F
$$

IDZ019>023-280100-
SOUTHEAST IDAHO


CITY           SKY/WX    TMP DP  RH WIND       PRES   REMARKS
IDAHO FALLS    CLOUDY    53  31  42 S10       30.11F
POCATELLO      CLEAR     54  27  35 S14       30.13S
REXBURG        CLOUDY    51  30  44 S14       30.09F
$$

IDZ006-010-011-018-031-032-280100-
CENTRAL IDAHO MOUNTAINS


CITY           SKY/WX    TMP DP  RH WIND       PRES   REMARKS
MCCALL         LGT RAIN  39  37  92 NE3       30.08F
HAILEY         CLOUDY    48  36  61 CALM      30.13F
STANLEY          N/A     41  33  73 SE6       30.14S
SALMON         CLOUDY    41  36  81 SE8       30.01R
CHALLIS        CLOUDY    53  31  42 SW7       30.05R
$$

IDZ002-004-006-007-026-280100-
NORTHERN IDAHO


CITY           SKY/WX    TMP DP  RH WIND       PRES   REMARKS
LEWISTON       CLOUDY    59  44  57 S30G36    29.84F
LOWELL           N/A     43  42  97 CALM      29.99R
COEUR D`ALENE  CLOUDY    54  41  62 SW17G29   29.78F
MULLAN PASS    LGT RAIN  35  35 100 S14G29    29.84F FOG     WCI  26
$$


USA.gov is the U.S. government's official web portal to all federal, state and local government web resources and services.